Location: Poughquag
(41.6090°N, 73.6820°W)
Time: 16:34:01
(UTC-04:00)

STARLINK-1373 - Pass Details

Date: 29 May 2020
Orbit: 548 x 551 km, 53.0° (Epoch: 30 October)

Event Time Altitude Azimuth Distance (km) Brightness Sun altitude
Exits shadow 03:28:15 - 284° (WNW) 1,888 6.1 -17.1°
Reaches altitude 10° 03:28:24 10° 285° (WNW) 1,838 6.1 -17.1°
Maximum altitude 03:31:51 24° 341° (NNW) 1,164 5.6 -16.7°
Drops below altitude 10° 03:35:21 10° 37° (NE) 1,850 7.7 -16.3°
Sets 03:37:56 0° 51° (NE) 2,750 8.9 -16.0°
